CW7218 Weather Reports


time (UTC)temp
F
wind
direction
speed
knots
gust
knots
rain 1hr
in
rain 24hr
in
rain mn
in
humidity
%
barometer
mb
20260503010036 53 90 1.7 5.2 0.00 0.24 0.00 81 1016.9
20260503005016 53 90 0.9 3.5 0.00 0.24 0.00 81 1017.0
20260503004036 53 0 1.7 5.2 0.00 0.24 0.00 80 1017.1
20260503003016 53 23 3.5 6.1 0.02 0.24 0.00 79 1017.1
20260503002016 53 68 2.6 7.8 0.02 0.24 0.00 79 1017.3
20260503001016 53 45 2.6 5.2 0.02 0.24 0.00 80 1017.4
20260503000016 53 23 4.3 7.0 0.02 0.24 0.24 80 1017.5
20260502235016 53 23 6.1 9.6 0.02 0.24 0.24 80 1017.6
20260502234016 53 45 5.2 8.7 0.02 0.24 0.24 81 1017.7
20260502233016 54 45 4.3 7.8 0.00 0.22 0.22 78 1017.9
20260502232016 54 45 5.2 7.0 0.00 0.22 0.22 77 1018.2
20260502231016 54 90 2.6 5.2 0.00 0.22 0.22 76 1018.3
20260502230056 55 68 3.5 5.2 0.00 0.22 0.22 75 1018.2
20260502225016 55 68 1.7 4.3 0.00 0.22 0.22 74 1018.3
20260502224016 55 45 2.6 5.2 0.00 0.22 0.22 73 1018.3
20260502223016 55 45 3.5 6.1 0.00 0.22 0.22 73 1018.3
20260502222016 55 45 3.5 7.0 0.00 0.22 0.22 70 1018.4
20260502221056 56 0 2.6 4.3 0.00 0.22 0.22 68 1018.5
20260502220016 56 0 2.6 5.2 0.00 0.22 0.22 69 1018.7
20260502215036 56 0 1.7 3.5 0.00 0.22 0.22 69 1018.8
20260502214016 56 0 1.7 4.3 0.00 0.22 0.22 71 1018.9
20260502213016 56 338 1.7 4.3 0.00 0.22 0.22 71 1018.9
20260502212015 56 270 0.9 2.6 0.00 0.22 0.22 71 1019.1
20260502211016 57 0.0 0.0 0.00 0.22 0.22 68 1019.1
20260502210016 57 0.0 0.0 0.00 0.22 0.22 69 1019.1
20260502205015 57 0.0 0.0 0.00 0.22 0.22 69 1019.0
20260502204015 56 0.0 0.0 0.00 0.22 0.22 70 1018.8
20260502203016 56 0.0 1.7 0.00 0.22 0.22 74 1018.6
20260502202016 56 23 0.9 2.6 0.00 0.22 0.22 77 1018.6
20260502201016 56 23 2.6 3.5 0.00 0.22 0.22 78 1018.3
20260502200015 56 45 2.6 3.5 0.00 0.22 0.22 79 1018.3
20260502195016 57 23 0.9 2.6 0.00 0.22 0.22 81 1018.3
20260502194035 56 23 1.7 2.6 0.00 0.22 0.22 82 1018.3
20260502193015 56 68 1.7 2.6 0.00 0.22 0.22 78 1018.4
20260502192035 56 90 1.7 4.3 0.00 0.22 0.22 78 1018.4
20260502191017 56 68 1.7 4.3 0.00 0.22 0.22 80 1018.1
20260502190017 56 45 2.6 4.3 0.00 0.22 0.22 79 1018.4
20260502185017 57 68 2.6 4.3 0.00 0.22 0.22 79 1018.2
20260502184017 57 45 2.6 4.3 0.00 0.22 0.22 80 1018.1
20260502183017 57 23 0.9 3.5 0.00 0.22 0.22 78 1018.3
20260502182017 57 45 1.7 3.5 0.00 0.22 0.22 78 1018.3
20260502181017 57 45 2.6 3.5 0.00 0.22 0.22 77 1018.2
20260502164017 58 45 2.6 4.3 0.00 0.22 0.22 75 1019.0
20260502163017 58 45 3.5 6.1 0.00 0.22 0.22 75 1019.3
20260502162017 58 68 4.3 7.0 0.00 0.22 0.22 74 1019.3
20260502161017 58 45 3.5 6.1 0.00 0.22 0.22 74 1019.3
20260502152017 58 45 3.5 6.1 0.00 0.22 0.22 72 1019.4
20260502151017 58 68 3.5 6.1 0.00 0.22 0.22 73 1019.5
20260502123016 54 45 5.2 7.8 0.00 0.22 0.22 83 1021.0
20260502122016 54 68 3.5 7.8 0.00 0.22 0.22 82 1021.2
20260502121016 54 23 5.2 7.8 0.00 0.22 0.22 81 1021.2
20260502115016 54 23 5.2 10.4 0.00 0.22 0.22 80 1021.1
20260502114016 54 23 3.5 5.2 0.00 0.22 0.22 79 1021.3
20260502113016 54 315 2.6 6.1 0.00 0.22 0.22 76 1021.6
20260502112016 54 270 2.6 7.0 0.00 0.22 0.22 75 1021.5
20260502111016 54 0.0 0.0 0.00 0.22 0.22 89 1021.6
20260502110016 54 0.0 0.0 0.00 0.22 0.22 90 1021.9
20260502105036 54 315 0.9 1.7 0.00 0.22 0.22 90 1021.9
20260502104016 53 315 0.9 2.6 0.00 0.22 0.22 90 1022.0
20260502103016 53 180 0.9 2.6 0.01 0.22 0.22 91 1022.0
20260502102016 53 158 0.9 2.6 0.02 0.22 0.22 91 1022.0
20260502101016 53 180 1.7 2.6 0.03 0.22 0.22 91 1022.0
20260502091016 53 158 1.7 2.6 0.03 0.19 0.19 91 1022.3
20260502071015 53 248 1.7 3.5 0.02 0.02 0.02 87 1022.1
20260502070015 53 158 1.7 3.5 0.02 0.02 0.02 85 1022.1
20260502065015 54 68 0.9 2.6 0.02 0.02 0.02 84 1022.2
20260502064016 54 45 2.6 4.3 0.02 0.02 0.02 81 1022.1
20260502063716 55 90 1.7 5.2 0.01 0.01 0.01 77 1022.2
20260502011027 54 23 5.2 7.8 0.00 0.00 0.00 79 1022.8